ASTRA 2G (40364 NORAD) Tracking and Keplerian Element Data

This shows tracking and keplerian element data for the satellite.

Feedback or suggestion? Click here.




ElementValue
Catalog40364
NameASTRA 2G
Epoch Orbit1610
Epoch Day145.84327073
Epoch Year2019
RAAN69.0931
Inclination0.0511
Eccentricity0.0004998
Argument of Perigee351.8468
Mean Anonmoly153.9712
Mean Motion1.00274321
Decay Rate1.46E-06
L11 40364U 14089A 19145.84327073 .00000146 00000-0 00000-0 0 9994
L22 40364 0.0511 69.0931 0004998 351.8468 153.9712 1.00274321 16105

Live tracking and technical data element details for ASTRA 2G (NORAD 40364). ASTRA 2G can be tracked NOW for your location showing map with azimuth and elevation plus other details from your city location.

Track the satellite on the map from your city or location and see movement details for azimuth, elevation, latitude, longitude, range, height, and movement on the map or in text.







IsCatalogInMostPopularTable: catalog: 40364, numindb: 235
Update: records affected: 1



GetName: 40364 ASTRA 2G

Hit Count: updated at: Sun, 26 May 2019 18:57:50 GMT